Location: Mount Tamalpais State Park
(37.9108°N, 122.6128°W)
Time: 10:33:17
(UTC-08:00)

Cosmos 1814 Rocket - Visible Passes

Search period start: 26 November 2014 00:00
Search period end: 06 December 2014 00:00
Orbit: 746 x 787 km, 74.1° (Epoch: 26 November)

Date Brightness Start Highest point End Pass type
(mag) Time Alt. Az. Time Alt. Az. Time Alt. Az.
27 Nov 5.9 06:13:02 10° N 06:17:29 28° ENE 06:21:56 10° ESE visible
28 Nov 6.5 05:36:31 10° NNE 05:39:52 17° ENE 05:43:13 10° E visible
30 Nov 5.0 06:02:34 10° N 06:07:33 46° ENE 06:12:33 10° SE visible
01 Dec 5.9 05:25:40 10° N 05:30:03 27° ENE 05:34:26 10° ESE visible
02 Dec 6.6 04:49:13 10° NNE 04:52:25 16° ENE 04:55:38 10° E visible
02 Dec 4.1 06:29:45 10° NNW 06:34:50 59° WSW 06:39:58 10° S visible
02 Dec 6.3 19:23:05 10° S 19:23:24 12° S 19:23:24 12° S visible
03 Dec 4.1 05:52:20 10° NNW 05:57:32 78° ENE 06:02:46 10° SSE visible
03 Dec 5.8 18:46:29 10° SSE 18:47:48 17° SSE 18:47:48 17° SSE visible
04 Dec 5.0 05:15:10 10° N 05:20:08 44° ENE 05:25:06 10° SE visible
04 Dec 5.7 18:10:39 10° SE 18:12:12 14° ESE 18:12:12 14° ESE visible
04 Dec 5.8 19:50:20 10° SW 19:52:31 25° SW 19:52:31 25° SW visible
05 Dec 5.9 04:39:00 13° NNE 04:42:37 26° ENE 04:46:56 10° ESE visible
05 Dec 4.7 06:19:59 10° NW 06:24:39 35° W 06:29:21 10° SSW visible
05 Dec 4.3 19:12:48 10° SSW 19:16:53 58° SSW 19:16:53 58° SSW visible
